Simultaneous Nadir Overpasses (SNOs) Predictions

Prediction of SNOs between GOES-15 and LANDSAT-8 Satellite Orbit:

Table of predicted SNOs for the next 14.0 days since TLE Epoch: 7/11/2020
Index Date Time (GOES-15) GOES-15 Lat,Lon LANDSAT-8 Lat,Lon Distance(km) Time Diff (sec)
1 07/12/2020 18:33:05 0.01,-128.33 -0.69,-124.99 379.38 80
2 07/13/2020 06:54:30 -0.01,-128.35 -0.38,-130.19 209.57 80
3 07/15/2020 06:39:39 -0.01,-128.37 0.23,-127.23 129.05 80
4 07/15/2020 19:00:55 0.01,-128.36 0.85,-132.39 458.04 80
5 07/17/2020 06:27:28 -0.02,-128.38 0.84,-124.27 467.01 80
6 07/17/2020 18:48:44 0.02,-128.37 0.24,-129.43 120.12 80
7 07/19/2020 18:39:13 0.02,-128.38 -0.36,-126.47 217.00 80
8 07/20/2020 07:00:38 -0.02,-128.40 -0.70,-131.67 371.50 80
9 07/22/2020 06:48:27 -0.02,-128.40 -0.09,-128.71 35.41 80
10 07/24/2020 06:33:36 -0.01,-128.39 0.53,-125.75 300.25 80
11 07/24/2020 18:54:52 0.01,-128.37 0.56,-130.90 288.30 80
